Temp
5 5 5 5 5 4 4 3 2 2 3 5 4 4 4 4 4 5 5 5 5 5 2 3 6 6 7 7 7 7 8 8 8 8 9 8 8 8
4 4 4 4 4 4 4 3 3 2 2 3 5 4 4 4 4 4 4 5 5 5 4 5 6 6 5 7 7 7 7 7 8 8 8 9 8 8
5 4 4 4 4 4 4 3 3 3 2 4 4 4 4 4 4 4 4 4 5 4 4 4 5 5 4 6 6 7 7 6 7 7 7 8 8 8
5 4 4 4 4 4 3 3 3 3 2 2 4 4 4 4 4 4 5 4 4 4 4 4 4 5 4 4 6 6 6 6 6 7 6 7 7 7
4 4 4 3 3 3 3 3 3 3 3 2 2 4 4 4 4 4 4 4 4 4 4 4 4 4 4 5 5 5 5 5 5 6 6 6 5 5
4 4 4 3 3 3 3 3 2 2 2 2 2 2 3 3 3 3 4 4 5 4 4 4 4 4 4 4 4 5 5 5 5 5 6 5 5 4
4 3 3 3 3 3 2 2 2 2 2 2 2 2 3 3 3 2 2 3 4 4 4 4 4 4 3 3 3 3 4 4 5 5 5 5 5 5
3 3 3 2 2 2 2 2 2 2 2 1 2 2 2 2 2 2 2 2 2 3 3 3 2 3 3 3 3 3 3 3 4 4 4 4 4 4
2 2 2 2 2 2 2 2 1 1 1 1 1 1 1 1 0 1 1 0 1 2 2 3 3 4 3 2 3 3 3 3 3 3 3 3 3 4
1 1 1 1 1 1 1 1 1 0 0 0 -0 0 -0 0 0 -0 0 -0 0 0 0 1 2 4 3 2 2 2 2 2 3 3 3 3 3 3
0 0 -0 0 -0 -0 -0 0 1 0 -0 -1 -0 -0 -0 -0 -0 -1 -0 -1 -0 0 0 -1 0 1 2 2 2 2 2 2 2 2 2 2 2 2
0 0 -0 -0 -0 -0 -1 -1 -0 0 0 1 1 0 -0 -0 -0 -1 -1 -1 -2 -2 -1 -1 -1 -1 -1 1 1 2 1 1 1 1 2 2 2 2
0 0 0 -0 -0 -0 -0 -1 -1 -1 -0 -1 -0 0 0 -0 -0 -1 -1 -1 -1 -1 -1 -2 -2 -2 -2 -2 -1 -1 0 0 0 -0 -0 1 1 1
-1 -1 -1 -1 -1 -1 -1 -1 -1 -0 -0 -0 -0 -0 -1 -0 -0 -1 -1 -1 -1 -1 -1 -2 -2 -2 -2 -2 -3 -2 -2 -1 -1 -1 -0 -1 -0 0
-2 -1 -1 -1 -1 -1 -1 -2 -2 -2 -2 -2 -2 -2 -3 -3 -2 -2 -2 -2 -2 -1 -2 -2 -2 -2 -2 -2 -3 -2 -3 -2 -2 -2 -2 -1 -1 -1
-2 -2 -2 -2 -2 -2 -2 -2 -3 -3 -4 -4 -4 -5 -6 -6 -6 -5 -3 -2 -3 -3 -3 -3 -3 -3 -3 -3 -3 -3 -3 -3 -2 -2 -2 -2 -2 -2
-2 -2 -2 -2 -2 -2 -2 -3 -3 -4 -5 -6 -7 -7 -7 -7 -7 -6 -5 -4 -3 -3 -3 -3 -3 -3 -3 -3 -3 -3 -3 -3 -4 -3 -3 -2 -2 -2
-3 -3 -3 -3 -3 -3 -4 -4 -4 -4 -5 -6 -7 -7 -7 -7 -7 -7 -6 -6 -5 -4 -3 -3 -3 -3 -3 -3 -3 -3 -3 -3 -3 -3 -3 -3 -2 -1
-4 -4 -4 -4 -4 -4 -5 -5 -5 -5 -6 -6 -7 -7 -7 -7 -7 -7 -7 -7 -6 -4 -4 -4 -4 -4 -4 -4 -3 -3 -3 -3 -3 -3 -3 -3 -2 -1
-4 -5 -5 -6 -6 -6 -6 -6 -6 -6 -7 -7 -7 -7 -7 -7 -7 -7 -7 -7 -6 -6 -5 -4 -4 -4 -4 -4 -4 -4 -4 -4 -4 -4 -4 -4 -3 -3
-5 -7 -8 -8 -8 -7 -7 -7 -7 -7 -7 -7 -7 -7 -7 -7 -7 -7 -7 -7 -7 -6 -6 -5 -4 -4 -4 -5 -5 -4 -4 -5 -4 -5 -5 -5 -5 -4
-7 -8 -9 -9 -9 -9 -9 -8 -8 -8 -8 -8 -8 -8 -7 -7 -8 -7 -7 -7 -7 -6 -6 -5 -5 -5 -5 -5 -5 -5 -5 -4 -5 -5 -5 -6 -6 -6
-8 -9 -9 -9 -9 -9 -9 -9 -9 -9 -9 -9 -8 -8 -8 -8 -8 -7 -7 -7 -7 -6 -6 -6 -5 -6 -5 -5 -5 -5 -5 -6 -5 -6 -5 -5 -6 -6
Height
1514 1514 1513 1511 1511 1510 1509 1509 1508 1506 1502 1501 1500 1499 1498 1496 1494 1492 1490 1487 1484 1481 1479 1475 1473 1471 1469 1467 1466 1465 1463 1461 1459 1457 1454 1452 1450 1447
1511 1511 1510 1508 1508 1508 1507 1506 1505 1504 1501 1498 1497 1496 1495 1493 1491 1489 1487 1485 1482 1479 1477 1474 1472 1470 1467 1465 1464 1462 1461 1459 1457 1456 1454 1453 1451 1449
1507 1507 1506 1505 1504 1504 1503 1503 1502 1500 1496 1493 1493 1493 1490 1489 1488 1487 1485 1482 1480 1477 1475 1473 1470 1469 1466 1464 1462 1460 1459 1458 1456 1455 1454 1453 1451 1450
1503 1502 1502 1501 1500 1500 1499 1498 1497 1497 1493 1490 1489 1488 1487 1486 1484 1482 1481 1479 1476 1474 1472 1470 1468 1466 1465 1463 1460 1459 1457 1456 1455 1454 1453 1453 1452 1452
1500 1499 1498 1497 1496 1495 1494 1493 1492 1491 1489 1486 1485 1484 1481 1481 1479 1478 1476 1474 1473 1470 1468 1467 1465 1463 1462 1460 1459 1457 1456 1455 1454 1453 1452 1452 1452 1453
1497 1495 1494 1492 1491 1491 1490 1488 1487 1486 1485 1483 1480 1479 1478 1476 1474 1472 1470 1469 1467 1467 1465 1463 1461 1460 1459 1457 1456 1456 1454 1453 1452 1452 1451 1451 1452 1453
1494 1493 1491 1489 1487 1486 1485 1483 1482 1480 1479 1478 1476 1474 1472 1472 1470 1467 1464 1463 1461 1460 1459 1458 1457 1457 1456 1455 1454 1453 1452 1451 1450 1450 1450 1450 1450 1451
1492 1490 1488 1486 1484 1482 1481 1479 1477 1475 1473 1472 1470 1468 1467 1467 1466 1463 1460 1458 1456 1456 1454 1454 1453 1453 1452 1451 1450 1449 1449 1448 1448 1448 1448 1448 1449 1449
1489 1487 1485 1483 1481 1479 1476 1475 1473 1471 1469 1467 1465 1464 1462 1461 1460 1458 1457 1454 1452 1452 1449 1445 1448 1448 1447 1446 1445 1445 1445 1445 1444 1445 1445 1446 1446 1447
1487 1484 1482 1480 1478 1476 1474 1471 1470 1468 1465 1463 1461 1459 1457 1456 1454 1453 1450 1449 1447 1446 1445 1440 1439 1441 1441 1440 1439 1440 1440 1440 1441 1441 1442 1443 1443 1444
1484 1482 1479 1477 1474 1472 1471 1469 1466 1465 1463 1459 1457 1454 1453 1451 1450 1447 1445 1443 1439 1438 1439 1437 1434 1435 1434 1434 1433 1434 1434 1435 1436 1437 1438 1439 1440 1441
1480 1479 1476 1473 1471 1467 1465 1462 1460 1459 1456 1454 1453 1451 1449 1446 1445 1442 1441 1438 1436 1432 1432 1433 1432 1432 1431 1430 1429 1429 1430 1431 1432 1433 1433 1435 1436 1438
1476 1474 1472 1470 1468 1464 1461 1458 1455 1452 1449 1447 1445 1444 1442 1440 1439 1437 1435 1433 1431 1428 1428 1429 1428 1428 1428 1428 1427 1428 1428 1428 1428 1429 1430 1430 1431 1433
1473 1470 1467 1464 1462 1460 1457 1453 1450 1446 1442 1440 1437 1436 1435 1432 1431 1429 1428 1426 1424 1423 1423 1423 1422 1422 1422 1422 1422 1423 1425 1425 1425 1426 1426 1427 1427 1428
1468 1465 1463 1460 1457 1454 1451 1448 1444 1441 1437 1434 1431 1427 1427 1426 1422 1421 1420 1419 1417 1417 1417 1417 1417 1417 1416 1416 1416 1416 1418 1418 1419 1419 1421 1422 1423 1424
1462 1459 1456 1453 1451 1447 1444 1442 1439 1436 1432 1429 1425 1421 1419 1418 1417 1416 1413 1412 1410 1409 1411 1411 1411 1411 1410 1410 1410 1410 1411 1412 1412 1414 1415 1416 1417 1418
1453 1451 1449 1446 1443 1440 1437 1435 1433 1430 1427 1423 1419 1417 1414 1411 1410 1409 1407 1406 1403 1402 1403 1405 1404 1404 1404 1403 1403 1404 1404 1404 1406 1406 1407 1409 1410 1412
1447 1445 1442 1439 1434 1431 1429 1426 1425 1422 1420 1418 1413 1411 1409 1406 1404 1403 1401 1398 1396 1395 1396 1397 1397 1396 1396 1395 1397 1396 1396 1397 1399 1399 1399 1399 1401 1404
1442 1438 1434 1430 1426 1424 1420 1418 1415 1414 1412 1410 1408 1405 1403 1399 1398 1396 1394 1391 1389 1388 1388 1389 1389 1389 1388 1386 1389 1390 1390 1390 1391 1391 1392 1393 1393 1396
1432 1428 1425 1422 1418 1416 1413 1410 1407 1405 1403 1402 1400 1398 1395 1393 1390 1388 1386 1384 1382 1381 1380 1380 1380 1381 1381 1381 1381 1382 1382 1383 1384 1384 1385 1386 1387 1388
1422 1418 1416 1413 1410 1407 1404 1402 1399 1396 1394 1392 1391 1389 1388 1385 1382 1380 1378 1377 1376 1374 1373 1372 1372 1374 1373 1374 1373 1372 1374 1377 1378 1378 1378 1379 1380 1381
1414 1411 1408 1405 1402 1399 1396 1393 1390 1388 1386 1385 1383 1381 1379 1378 1375 1373 1371 1369 1368 1366 1365 1365 1365 1365 1366 1366 1366 1366 1366 1369 1370 1371 1372 1373 1375 1374
1407 1403 1400 1396 1393 1390 1388 1385 1383 1380 1379 1377 1375 1372 1371 1368 1366 1364 1363 1361 1360 1359 1359 1357 1358 1358 1358 1359 1360 1360 1359 1361 1363 1364 1364 1367 1368 1368
Wind_Speed
13 13 13 11 12 13 13 13 12 9 17 8 9 8 13 19 20 18 18 19 17 17 13 15 13 12 13 11 11 11 9 10 10 9 10 10 10 5
13 14 14 13 13 14 14 14 15 16 18 18 19 21 18 18 16 16 17 17 17 17 17 18 16 12 15 14 13 12 9 9 9 9 7 7 5 10
14 15 15 15 14 14 15 16 17 18 24 27 24 20 20 19 17 17 17 17 16 16 16 17 16 15 16 16 13 12 10 8 8 8 5 3 4 3
14 16 16 16 17 16 17 17 18 18 23 27 27 25 22 20 21 21 17 16 18 17 17 17 17 17 16 16 14 13 10 7 6 6 3 0 3 5
15 16 16 17 18 17 19 19 19 19 21 25 26 26 27 23 22 20 20 20 19 19 19 19 17 17 18 15 13 11 11 9 6 4 4 3 6 8
15 15 16 16 18 18 19 19 20 21 21 24 26 26 26 25 25 24 24 20 20 19 19 20 19 16 14 14 12 10 10 9 7 4 3 5 8 11
14 15 16 17 18 19 20 21 21 22 23 25 27 28 27 25 24 25 26 23 22 20 18 15 15 14 15 15 14 14 11 11 8 5 3 4 7 9
15 14 15 16 16 18 19 21 22 23 23 24 25 27 28 25 24 24 26 25 25 22 20 18 20 19 19 18 17 17 15 11 10 8 6 5 6 9
14 14 14 14 16 16 15 16 17 18 19 22 24 26 26 25 24 26 26 27 27 24 26 30 25 22 19 17 17 17 17 15 13 11 9 8 7 8
15 15 15 16 16 17 17 17 16 15 15 16 19 23 24 24 24 24 26 28 29 28 25 31 28 23 19 17 17 16 16 17 14 13 11 11 10 10
15 16 17 17 17 19 20 22 22 18 15 15 17 19 21 22 22 23 26 26 29 30 25 25 29 24 19 15 16 18 16 17 17 15 13 13 13 13
15 16 17 19 20 21 23 24 26 25 27 25 19 17 18 20 21 23 24 26 26 28 21 16 21 14 9 11 8 10 15 16 15 16 15 13 14 14
19 19 19 20 21 22 23 24 24 26 27 28 29 26 22 22 20 20 21 25 27 29 27 22 23 20 18 20 18 13 7 8 12 14 15 15 14 14
21 21 22 23 24 24 24 25 26 26 26 27 28 28 27 27 22 21 19 20 23 26 24 22 24 25 23 23 23 19 13 12 12 12 14 13 13 14
23 23 23 24 25 26 26 27 28 27 27 27 28 26 26 26 26 23 22 21 21 21 22 22 24 26 27 27 28 25 22 18 20 18 17 17 17 17
26 26 26 26 26 26 27 27 27 26 24 25 28 25 23 23 25 22 22 22 21 21 18 20 20 21 24 26 26 26 24 20 17 20 21 20 21 22
30 31 30 29 30 29 27 27 26 27 26 26 24 23 23 24 24 23 24 23 22 23 22 19 20 21 22 23 24 24 24 24 22 21 25 22 20 24
29 31 32 31 32 32 31 31 29 28 27 25 26 24 25 26 27 26 24 25 27 23 24 22 21 22 24 26 26 27 27 26 22 19 19 23 26 28
30 32 33 33 33 32 32 32 32 30 27 25 23 26 27 26 26 27 26 26 27 26 27 25 23 22 25 28 29 27 25 25 22 22 21 21 22 22
34 32 32 32 32 32 32 32 32 31 28 25 25 25 25 26 28 28 29 27 26 25 25 24 28 24 24 25 27 26 25 24 22 22 21 20 20 22
36 30 29 30 30 30 30 30 30 30 29 28 28 28 26 26 26 26 25 25 24 25 27 27 24 26 28 24 24 27 26 24 22 21 21 21 20 22
33 32 30 29 30 30 31 30 30 29 27 28 28 28 27 26 27 26 25 27 26 26 26 26 24 23 24 26 24 25 28 22 20 19 21 21 20 15
29 28 30 31 31 33 33 31 28 27 29 30 30 29 29 31 28 26 27 27 26 26 25 28 23 21 23 25 25 25 25 24 22 22 23 21 22 22
Wind_Direction
297 298 298 299 290 284 282 284 287 293 309 315 298 300 300 302 307 311 319 326 333 335 330 328 331 327 327 331 321 321 319 317 329 350 358 6 23 8
294 294 296 298 293 287 283 278 274 274 271 282 294 300 304 305 308 308 314 319 325 327 330 333 339 336 337 331 328 325 326 320 318 328 351 356 39 35
292 292 294 294 293 289 285 281 277 274 276 287 290 298 300 301 301 300 306 309 313 317 320 320 324 332 335 326 329 324 326 326 319 321 338 345 56 103
295 290 293 290 290 289 287 283 280 280 281 286 293 296 296 298 300 300 300 300 304 305 309 313 316 316 320 323 325 323 326 333 329 314 323 354 131 114
303 298 296 291 290 289 286 284 283 281 280 284 290 296 301 303 300 297 298 297 298 298 300 305 306 311 313 313 318 322 318 325 339 315 274 185 167 141
309 303 298 292 290 289 287 288 287 285 284 283 287 291 295 301 302 305 301 299 295 291 293 296 297 301 305 307 308 310 308 310 315 315 260 224 196 186
318 310 303 298 294 293 291 290 288 287 288 288 288 290 291 295 298 302 302 303 300 300 296 293 288 289 300 301 300 302 302 298 295 289 256 222 209 212
330 325 318 311 305 299 295 293 293 293 292 289 289 290 293 297 297 295 295 298 300 300 295 286 285 287 289 287 289 288 286 285 283 277 264 240 211 203
333 333 332 327 322 317 311 306 301 296 293 293 292 292 294 295 294 291 292 291 291 291 291 293 294 292 285 277 279 276 276 274 272 266 258 246 237 225
327 328 329 331 332 330 327 322 316 313 304 294 291 293 292 292 288 287 286 287 289 287 288 289 293 294 284 277 269 267 265 271 265 261 253 248 240 235
317 317 318 319 320 319 317 315 312 311 306 303 301 297 294 292 290 284 281 284 287 289 292 284 289 302 291 286 269 262 260 258 263 260 253 243 237 236
319 316 312 310 309 308 307 309 310 309 307 306 299 295 300 299 292 284 284 280 281 288 293 283 291 297 307 293 290 277 256 252 253 260 260 250 238 235
321 321 319 317 315 313 311 309 307 304 300 297 295 294 293 296 295 290 280 275 276 272 277 274 277 281 280 282 283 283 285 257 252 253 265 263 251 236
322 321 321 320 319 316 312 309 308 307 304 300 297 293 288 286 285 286 284 277 275 276 277 273 266 270 275 277 281 279 260 248 258 261 257 255 249 246
319 318 318 316 314 314 314 313 311 310 308 306 304 301 296 294 292 286 286 286 278 273 270 266 263 263 269 272 277 279 283 270 258 245 240 244 245 246
315 314 315 314 312 310 309 309 310 310 308 303 303 302 304 303 296 298 296 286 283 277 272 268 268 267 269 269 272 273 274 269 262 248 240 237 238 240
313 312 313 313 311 309 305 303 303 305 309 314 305 303 304 306 304 299 294 290 284 279 276 270 266 268 269 268 265 268 274 276 275 273 254 249 244 243
305 305 306 307 307 308 307 305 303 302 301 306 312 303 301 302 302 302 297 290 287 288 273 273 267 268 266 264 261 265 269 273 281 278 272 262 253 245
299 300 300 300 300 300 301 301 300 300 298 294 294 297 297 298 298 295 292 289 282 281 276 272 271 267 265 265 269 266 271 279 280 273 269 266 267 258
303 299 295 294 294 296 296 297 297 297 295 293 292 293 292 294 294 292 288 289 285 280 283 276 262 262 259 268 273 276 271 269 267 270 271 269 263 253
307 303 299 299 297 296 296 295 294 293 293 295 295 293 293 295 294 294 288 287 287 276 280 279 278 271 270 263 263 266 267 269 269 269 269 264 261 258
306 300 299 300 299 299 300 298 294 292 291 291 290 291 294 297 292 293 286 283 290 279 276 274 279 273 272 258 266 273 276 271 264 263 259 258 255 257
302 298 300 300 301 303 300 297 294 291 292 291 292 284 290 294 288 293 287 281 281 283 279 279 274 271 264 257 259 274 274 272 267 265 263 258 257 256